[[{"header":{"parameterUnit":"m.s-1","parameterCategory":1,"la1":30.2991,"la2":30.254,"lo1":-89.0895,"lo2":-89.0444,"dy":0.0017,"dx":0.0017,"nx":28,"ny":28,"refTime":"2023-09-13T09:00:00:Z","depth":0,"parameterNumber":2,"parameterNumberName":"U-component_of_WINDS"},"data":[0,0,0,0,0,0,0,0,0,0,0,0,0,0,0,0,0,0,0,0,0,0,0,0,0,0,0,0,0,0,0,0,0,0,0,0,0,0,0,0,0,0,0,0,0,0,0,0,0,0,0,0,0,0,0,0,0,0,1.5264,1.5266,0,1.5399,1.54,1.5402,1.5462,1.5462,1.5462,1.5462,1.5597,1.5601,1.5604,0,0,0,0,0,0,0,0,0,0,0,0,0,1.5058,1.5061,1.5264,1.5266,1.5267,1.5399,1.54,1.5402,1.5462,1.5462,1.5462,1.5462,1.5596,1.56,1.5605,0,0,0,0,0,0,0,0,0,0,0,0,0,1.5165,1.5062,1.5264,1.5313,1.5319,1.5398,1.54,1.5403,1.5462,1.5462,1.5462,1.5462,1.5594,1.56,1.5605,1.5644,0,0,1.5623,1.5625,0,0,0,0,0,0,0,0,1.5159,1.5173,1.5304,1.531,1.5317,1.5414,1.5377,1.5484,1.5462,1.5408,1.5462,1.5462,1.5536,1.5546,1.5572,1.5651,1.5657,1.5623,1.5626,1.5629,1.563,0,0,0,0,0,0,0,1.5152,1.5167,1.5317,1.5306,1.5314,1.5328,1.5343,1.5398,1.5471,1.5413,1.5417,1.5433,1.5539,1.5567,1.5576,1.5659,1.5623,1.5628,1.5631,1.5634,1.5778,1.5778,0,0,0,0,0,0,1.5136,1.5161,1.5313,1.5321,1.5236,1.5332,1.5349,1.5383,1.5471,1.5484,1.5433,1.5435,1.5557,1.5569,1.5581,1.5633,1.5629,1.5634,1.5637,1.5777,1.5778,1.5778,0,0,0,0,0,0,1.5132,1.5149,1.5308,1.5242,1.5264,1.5336,1.5373,1.5385,1.5413,1.5486,1.55,1.5447,1.5557,1.5573,1.5629,1.5639,1.5637,1.5642,1.5777,1.5777,1.5778,1.5738,0,0,0,0,0,0,1.5125,1.5147,1.5163,1.5242,1.5267,1.5354,1.5374,1.5388,1.5423,1.5427,1.5503,1.5516,1.5558,1.562,1.5634,1.5647,1.5646,1.5776,1.5777,1.5778,1.5739,1.5737,1.5736,0,0,0,0,0,1.5118,1.5145,1.5163,1.5182,1.5288,1.5354,1.5368,1.5417,1.5423,1.544,1.5487,1.5513,1.5635,1.5625,1.5642,1.5656,1.5776,1.5777,1.5778,1.5739,1.5738,1.5736,0,0,0,0,0,0,1.5064,1.5157,1.5178,1.5232,1.5285,1.5364,1.5386,1.5414,1.5465,1.5467,1.5525,1.5542,1.5593,1.563,1.5617,1.5699,1.5708,1.5712,1.5673,1.5672,1.5671,1.5661,1.5651,0,0,0,0,0,1.5059,1.5105,1.5183,1.5224,1.5249,1.5313,1.5343,1.5377,1.5434,1.5456,1.5508,1.5561,1.5612,1.5644,1.5694,1.5744,1.5762,1.5762,1.5761,1.5759,1.5763,1.5793,1.5794,1.5782,1.5782,1.5782,0,0,1.5048,1.5104,1.5129,1.5214,1.5259,1.5306,1.5331,1.5379,1.5414,1.5463,1.552,1.5559,1.5623,1.5676,1.5702,1.5709,1.577,1.5761,1.5759,1.5763,1.5794,1.5795,1.5796,1.5782,1.5782,1.5782,0,0,1.5052,1.5099,1.5138,1.5183,1.5252,1.5294,1.5304,1.5379,1.5408,1.5466,1.5504,1.5546,1.5632,1.5676,1.571,1.5732,1.5758,1.5747,1.574,1.5768,1.5769,1.5771,1.5779,1.5782,1.575,1.575,1.575,0,1.5029,1.5101,1.5155,1.5201,1.5237,1.5286,1.5326,1.5367,1.5447,1.5471,1.5478,1.5587,1.5633,1.5698,1.5704,1.5729,1.5742,1.5738,1.5765,1.5767,1.5769,1.5778,1.5781,1.5748,1.5748,1.5748,1.5748,0,1.5071,1.512,1.5144,1.5222,1.5261,1.5304,1.5364,1.5397,1.5428,1.5469,1.5528,1.5585,1.5649,1.5667,1.5696,1.5736,1.5738,1.5754,1.5764,1.5767,1.5777,1.578,1.5745,1.5746,1.5746,1.5747,0,0,1.5043,1.5152,1.516,1.5197,1.5277,1.5316,1.5361,1.5425,1.5452,1.5506,1.5546,1.5618,1.5634,1.5672,1.5707,1.5732,1.5747,1.5745,1.5748,1.5744,1.5796,1.5784,1.5787,1.5765,1.5766,1.5767,1.5791,0,1.5058,1.5143,1.5193,1.5257,1.5304,1.5351,1.5391,1.5444,1.5485,1.553,1.5574,1.5625,1.5641,1.5665,1.5692,1.574,1.5759,1.5739,1.5803,1.5804,1.5786,1.5792,1.5779,1.5799,1.5795,1.5795,1.5796,0,1.5087,1.5142,1.5211,1.5287,1.5309,1.5344,1.5407,1.545,1.5511,1.5539,1.5582,1.5618,1.5667,1.5674,1.5743,1.5728,1.5758,1.5785,1.5787,1.5795,1.58,1.58,1.5806,1.5809,1.5802,1.5802,1.5801,0,1.5061,1.5152,1.5206,1.5236,1.5326,1.5349,1.5388,1.5449,1.5484,1.5539,1.5563,1.5622,1.5654,1.5699,1.575,1.575,1.5815,1.5825,1.5839,1.5838,1.5851,1.5849,1.5862,1.5869,1.5869,1.5868,1.5868,0,1.5073,1.5113,1.5196,1.5228,1.5276,1.5333,1.5378,1.542,1.5474,1.5516,1.556,1.5598,1.5663,1.5709,1.5748,1.58,1.5814,1.5838,1.5848,1.5835,1.5832,1.5855,1.5855,1.5869,1.5869,1.5869,1.5869,0,1.5051,1.5108,1.517,1.5251,1.5272,1.5303,1.5372,1.5406,1.5449,1.5502,1.5517,1.5585,1.5642,1.5697,1.5772,1.5799,1.5851,1.5864,1.5831,1.5836,1.5848,1.5846,1.5876,1.5883,1.5884,1.5884,1.5884,0,1.5055,1.5087,1.5172,1.5204,1.5242,1.5293,1.533,1.5388,1.5425,1.5498,1.5523,1.5583,1.5634,1.5722,1.5778,1.5836,1.5852,1.5858,1.586,1.5846,1.5852,1.585,1.5854,1.5856,1.5856,1.5856,1.5856,0,1.5055,1.5083,1.5135,1.5198,1.5241,1.5293,1.5346,1.537,1.5438,1.5477,1.5536,1.5576,1.5654,1.5714,1.5779,1.5818,1.5848,1.5855,1.5861,1.5847,1.5827,1.5839,1.5827,1.5853,1.5854,1.5854,1.5854,1.5854,1.5047,1.5079,1.5145,1.5202,1.5249,1.5298,1.5334,1.5383,1.5434,1.5503,1.5534,1.5594,1.5656,1.5747,1.5785,1.5833,1.584,1.5849,1.5852,1.5853,1.5851,1.5819,1.5844,1.5845,1.5845,1.5845,1.5845,0,1.5051,1.5096,1.5148,1.5223,1.5268,1.5294,1.5355,1.5391,1.5443,1.5499,1.5549,1.5618,1.5676,1.5737,1.5798,1.5825,1.584,1.5839,1.5838,1.5846,1.584,1.5828,1.5825,1.5825,1.5825,1.5825,1.5825,1.5825,1.5058,1.5114,1.5149,1.5229,1.5273,1.5334,1.5366,1.5412,1.5457,1.5532,1.5581,1.5621,1.5679,1.5746,1.58,1.5817,1.5838,1.5832,1.5853,1.5845,1.5847,1.5848,1.5837,1.5836,1.5836,1.5855,1.5856,1.5856]},{"header":{"parameterUnit":"m.s-1","parameterCategory":1,"la1":30.2991,"la2":30.254,"lo1":-89.0895,"lo2":-89.0444,"dy":0.0017,"dx":0.0017,"nx":28,"ny":28,"refTime":"2023-09-13T09:00:00:Z","depth":0,"parameterNumber":3,"parameterNumberName":"V-component_of_WINDS"},"data":[0,0,0,0,0,0,0,0,0,0,0,0,0,0,0,0,0,0,0,0,0,0,0,0,0,0,0,0,0,0,0,0,0,0,0,0,0,0,0,0,0,0,0,0,0,0,0,0,0,0,0,0,0,0,0,0,0,0,0.0496,0.0498,0,0.0683,0.0686,0.0688,0.0765,0.0765,0.0764,0.0764,0.0958,0.0963,0.0969,0,0,0,0,0,0,0,0,0,0,0,0,0,0.0206,0.0211,0.0496,0.0498,0.0501,0.0683,0.0686,0.0688,0.0765,0.0765,0.0764,0.0764,0.0956,0.0963,0.0969,0,0,0,0,0,0,0,0,0,0,0,0,0,0.0357,0.0213,0.0496,0.0561,0.0569,0.0683,0.0686,0.0689,0.0765,0.0765,0.0764,0.0763,0.0954,0.0962,0.097,0.1034,0,0,0.0996,0.0999,0,0,0,0,0,0,0,0,0.0348,0.0367,0.0549,0.0557,0.0566,0.07,0.0655,0.0805,0.0765,0.0691,0.0764,0.0763,0.0873,0.0888,0.0924,0.1043,0.1051,0.0996,0.1001,0.1005,0.1007,0,0,0,0,0,0,0,0.0337,0.036,0.057,0.0552,0.0562,0.0581,0.0602,0.0683,0.0783,0.0697,0.0703,0.0724,0.0877,0.0916,0.0929,0.1054,0.0996,0.1003,0.1009,0.1012,0.1233,0.1234,0,0,0,0,0,0,0.0316,0.035,0.0564,0.0576,0.0453,0.0587,0.061,0.0658,0.0782,0.0801,0.0724,0.0727,0.0902,0.092,0.0936,0.1018,0.1005,0.1013,0.1017,0.1232,0.1233,0.1234,0,0,0,0,0,0,0.031,0.0334,0.0557,0.0465,0.0495,0.0593,0.0645,0.0662,0.0701,0.0803,0.0821,0.0746,0.0902,0.0925,0.1009,0.1026,0.1016,0.1024,0.1231,0.1232,0.1234,0.1183,0,0,0,0,0,0,0.0301,0.0332,0.0356,0.0465,0.0499,0.0625,0.0646,0.0666,0.0714,0.072,0.0828,0.0845,0.0904,0.0996,0.1017,0.1038,0.103,0.123,0.1232,0.1233,0.1183,0.1182,0.1181,0,0,0,0,0,0.029,0.0335,0.0357,0.0383,0.0532,0.0626,0.0646,0.0711,0.0715,0.0741,0.0807,0.0842,0.1021,0.1004,0.1028,0.1051,0.1229,0.1231,0.1233,0.1184,0.1182,0.1181,0,0,0,0,0,0,0.0228,0.0351,0.0377,0.0458,0.0531,0.0639,0.0674,0.0708,0.0782,0.0784,0.0863,0.0887,0.0963,0.1016,0.0995,0.1119,0.1128,0.1134,0.1082,0.1081,0.108,0.1066,0.1037,0,0,0,0,0,0.0223,0.0288,0.0393,0.0455,0.049,0.0575,0.0618,0.0662,0.0741,0.0773,0.0845,0.092,0.0994,0.104,0.1114,0.1191,0.1216,0.1219,0.1218,0.1217,0.1222,0.1266,0.1269,0.1241,0.124,0.124,0,0,0.0215,0.029,0.0327,0.0444,0.0505,0.0571,0.06,0.0669,0.0719,0.0784,0.0867,0.0922,0.1012,0.1092,0.1131,0.1138,0.1235,0.1219,0.1217,0.1224,0.1268,0.1271,0.1273,0.1242,0.1242,0.1241,0,0,0.0233,0.0297,0.0355,0.0416,0.0508,0.0565,0.0578,0.0681,0.072,0.0804,0.0853,0.0914,0.1039,0.11,0.1148,0.1188,0.1223,0.121,0.1205,0.1247,0.1249,0.1251,0.1265,0.1269,0.1215,0.1215,0.1214,0,0.0212,0.0313,0.0381,0.0447,0.0496,0.0556,0.0616,0.0672,0.0783,0.0816,0.0823,0.098,0.1045,0.114,0.1149,0.1186,0.1204,0.1198,0.1243,0.1246,0.1249,0.1263,0.1268,0.1212,0.1213,0.1213,0.1213,0,0.0281,0.035,0.0386,0.0491,0.0545,0.0607,0.0685,0.0731,0.077,0.0826,0.091,0.099,0.108,0.1106,0.1145,0.1207,0.1208,0.1227,0.1238,0.1248,0.1263,0.1269,0.1209,0.121,0.1211,0.1211,0,0,0.0266,0.0407,0.0419,0.0467,0.0573,0.0628,0.0692,0.0779,0.0817,0.0892,0.0948,0.1052,0.107,0.1124,0.1171,0.1208,0.1234,0.1223,0.1226,0.1222,0.1306,0.129,0.1295,0.1257,0.1258,0.1259,0.1298,0,0.0299,0.0416,0.0479,0.057,0.0635,0.0692,0.0749,0.0819,0.0873,0.0936,0.0995,0.1067,0.1086,0.1118,0.1157,0.1222,0.1251,0.122,0.131,0.1313,0.1286,0.1303,0.1288,0.132,0.1304,0.1305,0.1306,0,0.0353,0.0425,0.0522,0.062,0.0649,0.0699,0.0783,0.0842,0.0924,0.096,0.1019,0.1065,0.1135,0.114,0.1238,0.1215,0.1256,0.1293,0.1296,0.1307,0.131,0.1314,0.1332,0.1337,0.1316,0.1315,0.1314,0,0.0331,0.0453,0.0527,0.0567,0.0682,0.0716,0.0765,0.0846,0.0894,0.0968,0.1,0.1081,0.1125,0.1187,0.1254,0.1251,0.1345,0.1355,0.1377,0.1376,0.1395,0.1393,0.1419,0.1421,0.1421,0.1421,0.142,0,0.0361,0.0418,0.0519,0.0565,0.063,0.0702,0.0765,0.0819,0.089,0.0948,0.1002,0.1055,0.114,0.1203,0.1255,0.1328,0.1348,0.138,0.1393,0.1375,0.1371,0.1403,0.1402,0.1422,0.1422,0.1421,0.1421,0,0.0348,0.0418,0.0503,0.0604,0.0631,0.0675,0.0763,0.0809,0.0865,0.0936,0.0957,0.1045,0.1122,0.1194,0.1297,0.1333,0.1406,0.1423,0.1378,0.1385,0.1403,0.14,0.1451,0.1461,0.1455,0.1455,0.1455,0,0.0362,0.0408,0.0514,0.0556,0.0604,0.0671,0.072,0.0791,0.084,0.0935,0.097,0.1051,0.1119,0.124,0.1313,0.1392,0.1412,0.1424,0.1424,0.1404,0.1412,0.1408,0.1413,0.1423,0.1422,0.1422,0.1422,0,0.038,0.0412,0.048,0.056,0.0616,0.0683,0.0751,0.0782,0.0867,0.0919,0.0998,0.105,0.1155,0.1235,0.1322,0.1374,0.1412,0.1421,0.143,0.1412,0.1384,0.1399,0.1374,0.142,0.142,0.142,0.142,0.142,0.0382,0.0424,0.0505,0.0579,0.0637,0.07,0.0748,0.0809,0.0876,0.0966,0.1004,0.1084,0.1164,0.1284,0.1336,0.1399,0.1408,0.1422,0.1425,0.1427,0.1423,0.1373,0.1416,0.1416,0.1416,0.1416,0.1416,0,0.0402,0.0456,0.0523,0.0617,0.0674,0.0704,0.0781,0.0827,0.0897,0.0968,0.1033,0.1124,0.1201,0.1279,0.1361,0.1396,0.1416,0.1416,0.1414,0.1425,0.1411,0.1395,0.1398,0.1398,0.1398,0.1398,0.1398,0.1398,0.0419,0.0492,0.0534,0.0636,0.0691,0.0769,0.081,0.0868,0.0925,0.1023,0.1087,0.1137,0.1211,0.1298,0.137,0.1392,0.1419,0.1414,0.144,0.1425,0.1426,0.1427,0.1412,0.1419,0.1419,0.1448,0.1449,0.1449]}]]